Weather Roundup
Issued by NWS Chicago, IL

Home | Current Version | Previous Version | Text Only | Print | Product List | Glossary On
Versions: 1 2 3 4 5 6 7 8 9 10 11 12 13 14 15 16 17 18 19 20 21 22 23 24 25 26 27 28 29 30 31 32 33 34 35 36 37 38 39 40 41 42 43 44 45 46 47 48 49 50
000
NZUS59 KLOT 261810
HRRLOT

CHICAGO AREA WEATHER ROUNDUP
NATIONAL WEATHER SERVICE CHICAGO/ROMEOVILLE IL
1200 PM CST MON JAN 26 2015

NOTE: "FAIR" INDICATES FEW OR NO CLOUDS BELOW 12,000 FEET WITH NO
SIGNIFICANT WEATHER AND/OR OBSTRUCTIONS TO VISIBILITY.

* THESE STATIONS ARE NOT UNDER NWS QUALITY CONTROL. THEY ALSO MAY NOT
  REPORT WEATHER SUCH AS PRECIPITATION OR FOG.

ILZ005-006-012>014-019>023-261900-
NORTHEAST ILLINOIS

CITY           SKY/WX    TMP DP  RH WIND       PRES   REMARKS
OHARE          CLOUDY    25  16  68 SW5       29.90F WCI  19
6HR MIN TEMP:  15; 6HR MAX TEMP:  25;

MIDWAY         CLOUDY    27  19  72 S6        29.91F WCI  20
6HR MIN TEMP:  21; 6HR MAX TEMP:  27;

AURORA         CLOUDY    25  17  72 S7        29.91F WCI  17
6HR MIN TEMP:  14; 6HR MAX TEMP:  25;

LANSING*       PTSUNNY   25  18  74 SW7       29.92F WCI  18
JOLIET*        CLOUDY    26  19  76 SW8       29.92F WCI  17
WAUKEGAN       CLOUDY    26  16  65 VRB6      29.89F WCI  19
6HR MIN TEMP:  13; 6HR MAX TEMP:  26;

DUPAGE AIRPORT CLOUDY    25  17  72 S7        29.89F WCI  17
6HR MIN TEMP:  13; 6HR MAX TEMP:  25;

WHEELING       CLOUDY    26  16  65 S5        29.91F WCI  20
6HR MIN TEMP:  15; 6HR MAX TEMP:  26;

KANKAKEE*      CLOUDY    26  22  82 SW7       29.93F WCI  19
MORRIS*        CLOUDY    25  21  82 S3        29.92F
LEWIS AIRPORT* CLOUDY    26  19  75 SW6       29.91F WCI  19
NORTHERLY IS     N/A     26  18  71 S3          N/A
$$

WIZ051-052-058>065-066-070>072-261900-
SOUTHEAST WISCONSIN

CITY           SKY/WX    TMP DP  RH WIND       PRES   REMARKS
MILWAUKEE      CLOUDY    26  15  63 SW7       29.89F WCI  18
6HR MIN TEMP:  18; 6HR MAX TEMP:  27;

KENOSHA*       CLOUDY    27  17  66 SW7       29.89F WCI  19
RACINE*        CLOUDY    27  16  63 SE8       29.91F WCI  19
BURLINGTON     PTSUNNY   26  17  69 S8        29.88F WCI  17
WAUKESHA       CLOUDY    25  14  63 S7        29.89F WCI  17
WEST BEND      CLOUDY    27  16  63 S5        29.86F WCI  21
$$

INZ001>003-010>013-019-020-261900-
NORTHWEST INDIANA

CITY           SKY/WX    TMP DP  RH WIND       PRES   REMARKS
GARY*          CLOUDY    27  12  54 S5        29.93F WCI  21
MICHIGAN CITY* NOT AVBL
RENSSELAER*    NOT AVBL
VALPARAISO     CLOUDY    20  13  74 S5        29.92F WCI  13
$$

LMZ740>746-261900-
SOUTHERN LAKE MICHIGAN

STATION/POSITION TIME  SKY/WX   TEMP WIND        PRES    VSBY
                                AIR  DIR/SP/G
                 (UTC)          (F)  (DEG/KT/KT) (MB)    (MI)
HARRISON CRIB    1800            24  170/  7/ 10   N/A
BURNHAM HARBOR   1800            26  210/  3/  7   N/A
CALUMET HARBOR   1800            26  230/  5/  8   N/A
BURNS HARBOR     NOT AVBL
MICHIGAN CITY    1800            22  240/  1/  3   N/A
$$

ABBREVIATIONS USED IN REMARKS
   TC - TEMPERATURE IN CELSIUS
  WCI - WIND CHILL INDEX
   HX - HEAT INDEX
  VSB - VISIBILITY
$$



USA.gov is the U.S. government's official web portal to all federal, state and local government web resources and services.